Wind_Speed
110 111 111 112 112 113 114 114 114 115 115 115 115 115 116 116 116 117 117 117 117 117 117 117 116 116 116 116 115 115 115 115 114 114 114 114 113 113 113 113 112 112 111 111 110 109 108 107 106 105 104 103 102 101 100 100 99 98 97 97 96 95 95 94 94 93 93 93 93 92 92 92 92 92 92 93 93 93 93 93 93 93 93 93 93 93
112 113 113 114 114 115 115 115 115 116 116 116 116 116 116 116 117 117 117 117 117 117 117 117 117 117 117 117 117 117 117 116 116 116 116 115 115 115 114 114 113 112 112 111 110 109 108 107 105 104 103 102 101 100 99 98 97 96 96 95 94 93 93 92 92 91 91 91 90 90 90 90 90 90 90 90 90 90 90 90 90 90 90 90 90 90
114 115 115 115 116 117 117 117 117 117 117 117 117 117 117 117 117 117 117 117 117 117 117 117 117 117 117 117 117 117 117 117 117 117 117 117 117 116 115 115 114 113 112 111 110 108 107 106 105 103 102 101 100 98 97 96 96 95 94 93 92 91 91 90 90 89 88 88 88 87 87 87 87 87 87 87 87 87 87 87 87 87 87 87 87 87
115 116 117 117 117 118 118 118 119 118 118 118 118 118 118 117 117 117 117 117 117 117 117 117 117 117 117 117 117 117 117 117 117 117 117 117 117 117 116 115 114 113 112 110 109 108 106 105 104 102 101 100 98 97 96 95 94 93 92 91 90 89 88 88 87 86 86 85 85 84 84 84 83 83 83 83 83 83 83 83 83 83 83 83 83 83
116 117 117 118 119 119 119 119 119 119 119 119 119 119 119 119 119 118 118 118 118 118 117 117 117 117 117 117 117 117 117 116 116 116 116 116 116 116 115 114 113 112 110 109 108 106 105 104 102 101 100 99 97 96 95 94 93 91 90 89 88 87 86 85 84 84 83 82 82 81 81 80 80 79 79 79 79 79 79 79 79 79 79 79 79 79
117 118 118 119 119 120 120 120 120 120 120 120 120 120 120 120 120 119 119 119 119 118 118 118 118 118 117 117 117 117 116 116 116 115 115 115 114 114 113 112 111 110 108 107 105 104 103 102 100 99 98 97 96 95 93 92 91 90 88 87 86 85 84 83 82 81 80 79 79 78 77 76 76 76 75 75 75 75 75 75 74 74 74 74 74 74
119 119 119 120 120 120 120 121 121 121 121 121 122 121 121 121 120 120 120 120 119 119 119 119 118 118 118 117 117 117 116 115 115 114 113 113 112 111 110 109 108 107 105 104 102 101 100 99 98 97 96 95 94 92 91 90 88 87 86 85 83 82 81 80 79 78 77 76 76 75 74 73 73 72 72 72 71 71 71 71 71 70 70 70 70 70
120 120 120 120 121 121 121 121 121 121 121 122 122 122 122 121 121 120 120 120 120 119 119 119 119 118 118 117 117 116 115 114 113 112 111 110 109 108 107 106 104 103 102 100 99 98 97 96 94 93 92 91 90 89 88 87 85 84 83 82 80 79 78 77 76 75 74 74 73 72 71 70 69 69 69 68 68 68 68 67 67 67 67 66 66 66
121 121 121 121 121 122 122 122 122 122 121 122 122 122 122 122 121 121 120 120 119 119 119 119 119 119 118 117 116 115 114 113 111 110 108 107 106 105 103 102 101 99 98 97 95 94 93 92 91 90 89 87 86 85 84 83 82 81 80 79 78 76 75 74 74 73 72 71 70 69 68 67 67 67 66 66 66 65 65 64 64 64 63 63 63 63
121 122 122 122 122 122 122 123 123 122 122 122 122 122 121 121 121 121 121 120 119 119 118 118 118 118 117 116 115 113 112 110 109 107 106 104 103 101 100 99 97 96 94 93 91 90 89 88 87 86 85 84 82 81 80 79 79 78 77 76 75 74 73 72 71 70 69 68 67 66 66 65 65 64 64 64 63 63 62 62 61 61 61 60 60 60
122 123 123 123 123 122 122 123 123 122 122 122 122 122 121 121 120 121 121 121 120 119 119 118 118 117 116 115 113 111 109 107 106 104 103 101 100 98 97 95 93 92 90 89 87 86 85 84 83 82 81 80 79 78 77 76 75 75 74 73 72 71 70 70 69 68 67 66 65 64 63 63 63 62 62 61 61 61 60 60 59 59 58 58 58 58
123 123 123 123 123 123 123 123 123 123 122 122 123 123 122 121 121 120 120 120 120 119 119 118 117 116 114 113 111 109 106 105 103 101 100 98 96 95 93 92 90 88 87 85 84 82 81 80 79 78 78 76 75 74 73 73 72 72 71 70 70 69 68 67 67 66 65 63 63 62 61 61 61 60 60 60 59 59 58 57 57 56 56 56 56 55
124 123 123 123 123 123 123 123 124 123 123 123 123 123 123 122 121 120 120 120 119 118 118 117 115 114 112 110 108 106 104 102 100 98 96 95 93 91 89 88 86 85 84 82 81 79 78 77 76 75 74 74 73 72 71 70 70 69 69 68 67 66 66 65 64 64 62 62 61 60 60 59 59 59 58 58 57 57 56 56 55 55 54 54 54 54
124 124 124 123 124 123 123 123 124 124 123 123 122 122 122 121 120 120 119 119 118 117 115 114 113 111 109 107 105 103 100 99 97 95 93 91 89 87 86 84 83 82 81 80 78 77 76 74 73 73 72 71 71 70 69 68 68 67 67 66 65 64 64 63 62 62 61 60 59 59 58 58 58 57 57 56 56 55 55 54 54 53 53 53 52 52
124 124 124 124 124 124 124 123 123 123 123 122 122 121 121 120 119 119 118 117 116 115 113 111 110 108 106 104 102 99 97 95 93 92 90 88 86 84 83 81 80 79 78 77 76 75 73 72 71 70 70 69 69 68 67 67 66 65 65 64 63 62 62 61 60 59 59 58 58 57 57 56 56 56 55 55 54 54 53 53 52 52 52 51 51 51
123 123 124 124 124 124 123 123 123 123 122 122 121 120 120 119 119 118 117 115 114 112 110 108 106 105 102 100 98 96 94 92 90 88 87 86 84 82 80 79 77 76 75 75 74 73 71 70 69 68 68 67 67 66 66 65 64 64 63 62 61 61 60 59 58 58 57 56 56 56 55 55 55 55 54 54 53 53 52 51 51 51 50 50 50 49
123 123 123 124 124 124 123 123 122 122 122 121 120 120 119 118 117 116 115 113 111 109 107 105 103 101 99 97 94 92 90 89 87 85 84 83 81 79 78 76 75 74 73 72 72 70 69 68 67 66 66 65 65 64 64 63 63 62 61 61 60 59 58 57 56 56 55 55 54 54 54 54 54 53 53 52 52 51 51 50 50 49 49 48 48 48
123 123 123 124 124 124 123 123 122 122 121 120 120 119 118 117 116 114 112 110 108 106 103 101 99 96 95 93 91 88 87 85 84 82 81 80 79 77 76 74 73 72 71 70 70 68 68 67 66 65 64 63 63 62 62 61 61 60 60 59 58 57 56 55 55 54 54 53 53 53 53 53 52 52 51 51 50 49 49 49 48 48 47 47 46 46
123 123 123 124 124 123 123 122 122 121 121 120 119 118 117 116 114 112 109 107 105 102 100 98 95 93 91 89 87 85 83 82 80 79 78 77 76 75 73 72 71 70 69 68 67 66 66 65 64 63 62 62 61 60 60 59 59 58 58 57 56 55 54 53 53 52 52 52 52 51 51 51 51 50 49 49 48 48 47 47 46 46 46 45 45 44
124 124 123 123 123 123 123 122 121 120 120 119 118 117 115 113 111 109 107 104 102 99 97 94 92 89 87 85 83 81 80 78 77 76 75 74 73 72 71 70 69 68 67 66 65 65 64 63 62 61 60 60 59 58 58 57 57 56 55 55 54 53 52 52 51 51 50 50 50 50 49 49 48 48 47 47 46 46 45 45 44 44 44 43 43 43
124 124 123 123 122 122 122 121 120 119 119 118 116 115 113 111 108 106 103 101 98 96 93 91 88 86 84 82 80 78 77 76 74 74 73 72 71 70 69 68 67 66 65 64 63 63 62 61 60 59 58 58 57 56 56 55 54 54 53 53 52 51 50 50 49 49 48 48 48 47 47 46 46 45 45 45 44 44 43 43 43 42 42 42 41 41
123 123 123 122 122 121 121 120 119 118 117 116 114 112 110 107 105 103 100 97 95 92 90 88 85 83 81 79 78 76 74 73 72 71 70 69 69 67 66 65 65 64 63 62 61 61 60 59 58 57 57 56 55 54 54 53 52 52 51 50 50 49 48 48 47 47 46 46 45 45 44 44 44 43 43 43 42 42 42 41 41 41 40 40 40 39
122 122 122 121 121 120 120 119 118 117 116 114 112 109 107 104 102 99 96 94 91 89 87 85 83 81 79 77 75 74 72 71 70 69 68 67 66 65 64 63 62 62 61 60 59 58 58 57 56 55 55 54 53 52 52 51 50 50 49 48 47 47 46 46 45 45 44 44 43 43 42 42 42 41 41 41 41 40 40 40 39 39 39 38 38 38
122 121 121 121 120 119 118 118 117 115 113 111 108 106 103 100 98 95 93 90 88 86 84 82 80 78 76 75 73 71 70 68 67 66 66 65 64 63 62 61 60 60 59 58 57 56 56 55 54 53 52 52 51 50 49 49 48 47 47 46 45 45 44 44 43 43 42 42 41 41 41 40 40 40 39 39 39 39 38 38 38 37 37 37 36 36
121 121 120 120 119 118 117 116 115 113 110 108 105 103 100 97 94 92 89 87 84 83 81 79 78 76 74 73 71 69 68 66 65 64 64 63 62 61 60 59 58 57 56 56 55 54 53 53 52 51 50 49 49 48 47 47 46 45 45 44 44 43 42 42 41 41 40 40 40 39 39 39 38 38 38 37 37 37 36 36 36 36 36 35 35 35
120 120 119 119 118 117 116 114 112 110 107 104 102 99 96 94 91 88 86 84 82 80 78 77 75 74 72 70 69 67 66 65 64 63 62 61 60 59 58 57 56 55 54 54 53 52 51 50 50 49 48 47 47 46 45 45 44 44 43 43 42 41 41 40 40 39 39 38 38 38 37 37 37 36 36 36 35 35 35 35 34 34 34 34 34 33
120 119 118 118 117 115 114 112 109 107 104 101 98 96 93 90 88 85 83 81 79 78 76 75 73 72 70 68 67 65 64 63 62 61 60 59 58 58 57 55 54 53 52 51 51 50 49 48 48 47 46 45 45 44 44 43 43 42 41 41 40 40 39 39 38 38 38 37 37 36 36 35 35 35 34 34 34 34 33 33 33 33 33 32 32 32
119 118 117 116 115 113 111 109 106 103 101 98 95 92 89 87 85 83 81 79 77 76 74 73 71 70 68 67 65 64 63 61 60 59 58 57 57 56 55 54 53 51 50 49 48 48 47 47 46 45 45 44 43 43 42 42 41 40 40 39 39 39 38 37 37 37 36 36 35 35 34 34 34 33 33 33 32 32 32 32 31 31 31 31 31 31
118 117 116 115 113 111 109 106 103 100 97 94 92 89 86 84 82 80 78 77 75 74 72 71 69 68 67 65 64 62 61 60 59 58 57 56 55 54 53 52 51 50 48 47 47 46 45 45 44 44 43 43 42 41 41 40 40 39 39 38 37 37 37 36 36 35 35 34 34 33 33 33 32 32 31 31 31 30 30 30 30 30 29 29 29 29
117 116 115 113 111 109 106 103 100 97 94 91 88 86 84 81 79 78 76 75 73 72 70 69 68 66 65 64 63 61 60 58 57 56 55 54 53 52 51 50 49 48 47 46 45 44 44 43 43 42 42 41 41 40 39 39 38 38 37 37 36 35 35 35 34 34 33 33 32 32 32 31 31 30 30 29 29 29 29 28 28 28 28 28 27 27
116 114 113 111 108 106 103 100 97 94 91 88 85 83 81 79 77 76 74 73 71 70 69 67 66 65 64 62 61 60 59 57 56 55 53 52 51 50 49 48 47 46 45 44 43 43 42 42 41 41 40 40 39 39 38 37 37 36 36 35 35 34 33 33 33 32 32 31 31 30 30 30 29 29 28 28 28 28 27 27 27 26 26 26 26 25
114 112 111 108 105 102 99 96 93 91 88 85 83 81 79 77 75 74 72 71 69 68 67 66 64 63 62 61 59 58 57 56 55 53 52 51 50 49 47 46 45 45 44 43 42 42 41 41 40 39 39 38 38 37 36 36 35 35 34 34 33 33 32 32 31 31 30 30 29 29 29 28 28 28 27 27 26 26 26 25 25 24 24 24 23 23
112 110 108 105 102 99 96 93 90 87 85 82 80 78 76 75 73 72 70 69 67 66 65 64 63 62 61 59 58 57 55 54 53 52 50 49 48 47 46 45 44 43 43 42 41 40 40 39 39 38 38 37 36 36 35 35 34 33 33 32 32 32 31 31 30 30 29 29 28 28 27 27 27 26 26 25 25 24 24 23 23 22 22 22 21 21
110 108 105 102 99 96 93 90 87 84 82 80 78 76 74 73 71 70 68 67 65 64 63 62 61 60 59 58 57 55 54 52 51 50 49 47 46 45 44 43 42 42 41 40 40 39 39 38 38 37 36 36 35 34 34 33 33 32 32 31 31 30 30 30 29 29 28 28 27 27 26 26 25 25 24 24 23 23 22 22 21 21 20 19 19 19
107 105 102 99 96 93 90 87 84 81 79 77 75 74 72 71 69 68 66 65 64 62 61 60 59 58 57 56 55 53 52 51 49 48 47 46 45 44 43 42 41 40 40 39 38 38 37 37 36 36 35 34 34 33 33 32 32 31 31 30 30 29 29 29 28 28 27 27 26 26 25 24 24 23 23 22 22 21 21 20 20 19 18 18 17 17
105 102 99 96 93 90 87 84 81 79 77 75 74 72 70 69 67 66 65 63 62 61 59 58 57 56 55 54 53 52 50 49 48 47 46 45 44 43 42 41 40 39 38 38 37 37 36 36 35 34 34 33 33 32 32 31 31 30 30 30 29 29 28 28 27 27 26 25 25 24 24 23 22 22 21 21 20 20 19 19 18 17 17 16 16 15
102 99 96 93 90 87 84 81 79 77 75 73 72 70 69 67 66 64 63 62 61 59 58 57 56 54 53 52 51 50 49 47 46 45 44 43 42 41 41 40 39 38 37 37 36 35 35 34 34 33 33 32 32 31 31 31 30 30 29 28 28 27 27 26 26 25 25 24 23 23 22 21 21 20 20 19 19 18 18 17 16 16 15 15 14 14
99 96 93 90 87 84 81 79 77 75 73 72 70 69 67 66 64 63 62 60 59 58 57 55 54 53 52 50 49 48 47 46 45 44 43 42 41 40 39 39 38 37 36 36 35 34 34 33 33 32 32 32 31 31 30 30 29 29 28 27 27 26 26 25 24 24 23 23 22 21 21 20 19 19 18 18 17 17 16 15 15 14 14 13 13 12
96 94 91 87 84 81 79 76 75 73 71 70 68 67 65 64 63 61 60 59 58 57 55 54 53 51 50 49 48 46 45 44 43 42 42 41 40 39 38 38 37 36 35 35 34 33 33 32 32 31 31 30 30 30 29 29 28 28 27 26 26 25 24 24 23 22 22 21 21 20 19 18 18 17 17 16 15 15 14 14 13 13 12 12 12 11
94 91 88 85 82 79 77 75 73 71 70 68 67 65 64 63 61 60 59 57 56 55 54 53 51 50 49 47 46 45 44 43 42 41 40 39 39 38 37 36 36 35 34 34 33 32 32 31 31 30 30 30 29 29 28 28 27 26 26 25 24 24 23 22 22 21 20 20 19 18 18 17 16 16 15 15 14 14 13 13 12 12 12 11 11 11
91 88 85 82 79 77 74 72 71 69 68 67 65 64 63 61 60 59 57 56 55 53 52 51 50 48 47 46 45 44 43 42 41 40 39 38 37 37 36 35 34 34 33 32 32 31 31 30 30 30 29 29 28 28 27 27 26 25 25 24 23 23 22 21 20 20 19 19 18 17 17 16 15 15 14 14 13 13 13 12 12 12 12 11 11 11
89 86 83 80 77 75 72 71 69 68 66 65 64 62 61 60 59 57 56 55 53 52 51 49 48 47 45 44 43 42 41 40 39 39 38 37 36 36 35 34 33 33 32 32 31 30 30 30 29 29 28 28 27 27 26 26 25 24 24 23 22 22 21 20 19 19 18 18 17 17 16 15 15 14 14 13 13 13 13 12 12 12 11 11 11 11
86 83 80 77 75 73 71 69 67 66 64 63 62 61 60 58 57 56 55 54 52 51 49 48 47 45 44 43 42 41 40 39 38 37 37 36 35 34 34 33 32 32 31 31 30 30 29 29 28 28 27 27 26 26 25 25 24 23 23 22 21 21 20 19 19 18 18 17 17 16 16 15 15 14 14 14 13 13 13 12 12 12 11 11 11 11
84 81 78 75 73 70 69 67 66 64 63 61 60 59 58 57 56 54 53 52 51 49 48 47 45 44 43 42 41 40 39 38 37 36 35 35 34 33 33 32 32 31 30 30 29 29 28 28 27 27 26 26 25 25 24 24 23 23 22 21 21 20 19 19 18 18 17 17 16 16 16 15 15 15 14 14 13 13 12 12 12 11 11 11 10 10
81 78 76 73 71 69 67 65 64 63 61 60 59 57 56 55 54 53 52 50 49 48 47 45 44 43 42 41 40 39 38 37 36 35 34 34 33 32 32 31 31 30 30 29 29 28 28 27 27 26 26 25 24 24 23 23 22 22 21 20 20 19 19 18 18 18 17 17 17 16 16 15 15 14 14 14 13 13 12 12 11 11 11 10 10 10
79 76 74 71 69 67 65 64 62 61 60 58 57 56 55 54 52 51 50 49 48 46 45 44 43 41 40 39 39 37 37 36 35 34 33 33 32 31 31 30 30 29 29 28 28 27 27 26 26 25 25 24 24 23 22 22 21 21 21 20 20 19 19 18 18 18 17 17 16 16 16 15 15 14 14 13 13 12 12 12 11 11 11 10 10 10
77 74 72 69 67 65 64 62 61 59 58 57 56 55 53 52 51 50 49 47 46 45 44 42 41 40 39 38 37 36 35 35 34 33 32 32 31 30 30 30 29 28 28 27 27 27 26 26 25 24 24 23 23 22 22 22 21 21 20 20 20 19 19 18 18 18 17 17 16 16 16 15 15 14 14 13 13 13 12 12 12 11 11 11 10 10
75 72 70 67 66 64 62 61 59 58 57 55 54 53 52 51 49 48 47 46 45 43 42 41 40 39 38 37 36 35 34 34 33 32 31 31 30 30 29 29 28 28 27 27 26 26 25 25 24 24 24 23 23 22 22 22 21 21 20 20 19 19 19 18 18 18 17 17 17 16 16 15 15 14 14 13 13 13 13 12 12 11 11 11 10 10
73 70 68 66 64 62 61 60 58 57 55 54 53 52 51 49 48 47 46 45 43 42 41 39 38 38 37 36 35 34 33 32 32 31 30 30 30 29 29 28 28 27 27 26 26 25 25 24 24 24 23 23 22 22 22 21 21 21 20 20 19 19 19 18 18 18 17 17 17 16 16 15 15 15 14 14 13 13 13 13 12 12 11 11 11 10
71 68 66 64 62 61 59 58 57 55 54 53 52 50 49 48 47 46 44 43 42 40 39 38 37 36 35 35 34 33 32 32 31 30 30 29 29 29 28 27 27 26 26 26 25 25 24 24 24 23 23 23 22 22 22 21 21 21 20 20 20 19 19 19 18 18 18 17 17 17 16 16 15 15 15 14 14 13 13 13 12 12 12 11 11 11
69 67 64 63 61 59 58 57 55 54 53 51 50 49 48 47 45 44 43 41 40 39 38 37 36 35 34 33 33 32 31 31 30 30 29 29 29 28 28 27 27 26 26 25 25 25 24 24 23 23 23 23 22 22 22 22 21 21 20 20 20 20 19 19 19 18 18 18 18 17 17 16 16 16 15 15 14 14 13 13 13 13 12 12 12 11
Wind_Direction
314 314 314 314 314 314 314 315 315 315 315 315 315 315 315 314 314 314 314 313 313 312 312 311 311 310 310 309 309 308 308 307 307 307 306 305 305 304 304 303 303 302 302 301 301 300 300 299 299 298 298 297 296 296 295 294 293 293 292 291 290 290 289 288 288 287 286 285 284 284 283 282 282 281 280 280 279 279 278 277 277 276 276 275 274 274
314 314 314 314 315 315 315 315 315 315 315 315 315 315 315 314 314 314 313 313 313 312 312 311 311 310 310 310 309 309 308 308 307 307 306 306 305 305 304 304 303 303 302 302 301 301 300 300 299 299 298 297 297 296 295 294 294 293 292 291 291 290 289 289 288 287 286 286 285 284 284 283 282 281 281 280 279 279 278 278 277 277 276 275 275 274
314 314 314 315 315 315 315 315 315 315 315 315 315 315 315 314 314 314 313 313 312 312 311 311 311 310 310 309 309 309 308 308 307 307 307 306 305 305 304 304 303 303 302 302 301 301 301 300 300 299 298 298 297 296 296 295 294 293 292 292 291 291 290 289 288 288 287 286 285 285 284 283 282 282 281 281 280 279 279 278 278 277 276 276 275 275
314 314 314 314 314 314 315 315 315 315 315 315 315 315 315 314 314 314 313 313 312 312 311 311 310 310 309 309 309 308 308 307 307 307 306 306 305 305 304 304 303 303 303 302 302 301 301 300 300 299 299 298 297 297 296 295 295 294 293 293 292 291 291 290 289 289 288 287 286 285 285 284 283 283 282 282 281 280 279 279 278 277 277 276 276 275
314 314 314 314 314 314 315 315 315 315 315 315 315 315 315 314 314 314 313 313 312 312 311 311 310 310 309 309 308 308 308 307 307 306 306 305 305 304 304 304 303 303 303 302 302 301 301 301 300 300 299 299 298 297 297 296 295 295 294 294 293 292 292 291 290 290 289 288 287 287 286 285 285 284 283 283 282 281 280 280 279 278 278 277 276 275
314 314 314 314 314 315 315 315 315 315 316 316 315 315 315 315 314 314 313 313 312 312 311 311 310 310 309 309 308 308 307 307 306 306 305 305 304 304 304 303 303 303 302 302 302 301 301 301 300 300 299 299 298 298 297 296 296 296 295 295 294 293 293 292 291 291 290 289 289 288 287 287 286 286 285 284 283 282 282 281 280 279 278 278 277 276
313 314 314 314 315 315 315 315 316 316 316 316 315 315 315 314 314 314 313 313 312 312 311 311 310 310 309 309 308 308 307 307 306 306 305 305 304 304 303 303 302 302 302 302 301 301 301 300 300 299 299 298 298 298 297 297 297 296 296 295 295 294 294 293 292 292 291 290 290 289 289 288 288 287 286 285 284 284 283 282 281 280 279 279 278 277
314 314 314 315 315 315 316 316 316 316 316 316 315 315 315 314 314 313 313 313 312 312 311 311 310 310 309 309 308 308 307 307 306 306 305 305 304 304 303 303 302 302 302 302 301 301 300 300 300 299 299 298 298 298 297 297 297 296 296 296 295 295 294 294 293 292 292 291 291 291 290 290 289 288 287 286 285 285 284 283 282 281 281 280 279 278
314 314 315 315 315 316 316 316 316 316 316 315 315 315 315 314 314 313 313 312 312 311 311 311 310 310 309 309 308 308 307 307 306 306 305 305 304 303 303 303 302 302 302 302 301 301 300 300 300 299 299 298 298 298 298 297 297 297 296 296 295 295 294 294 293 293 293 292 292 292 291 290 289 289 288 287 286 285 284 284 283 282 282 281 280 279
314 315 315 315 316 316 316 316 316 316 316 315 315 315 314 314 313 313 313 312 312 312 311 311 310 310 309 309 308 308 307 307 307 306 305 305 304 304 303 303 303 303 302 302 301 301 300 300 300 299 299 299 298 298 298 297 297 297 296 296 296 295 295 294 294 293 293 293 293 292 291 291 290 289 288 287 287 286 285 284 284 283 283 282 281 280
315 315 315 316 316 316 316 316 316 316 315 315 315 314 314 314 313 313 313 312 312 312 311 311 310 310 309 309 308 308 308 307 307 306 306 305 304 304 304 304 303 303 303 302 302 301 301 300 300 300 299 299 299 298 298 298 297 297 296 296 296 295 295 295 294 294 294 293 293 292 292 291 290 289 289 288 287 286 286 285 285 284 283 282 281 281
315 315 316 316 316 316 316 316 316 316 315 315 315 315 314 314 314 313 313 313 312 312 312 311 310 310 309 309 308 308 308 307 307 306 306 305 305 305 305 304 304 304 303 303 302 302 301 301 300 300 300 299 299 298 298 297 297 297 296 296 296 296 295 295 295 294 294 294 293 293 292 291 290 290 289 288 287 287 286 286 285 284 283 283 282 281
315 316 316 316 316 316 316 316 316 316 316 315 315 315 314 314 314 313 313 313 312 312 312 311 310 310 310 309 309 308 308 308 307 307 306 306 306 305 305 305 305 304 304 303 303 302 302 301 301 301 300 300 299 299 298 298 297 297 296 296 296 296 295 295 295 295 295 294 294 293 292 291 291 290 289 288 287 287 286 286 285 284 284 283 282 281
315 316 316 316 316 317 316 316 316 316 315 315 315 314 314 314 314 313 313 313 312 312 312 311 310 310 310 309 309 309 309 308 308 307 307 306 306 306 306 305 305 305 304 304 303 303 303 302 302 301 301 300 300 299 299 298 297 297 297 296 296 296 296 296 295 295 295 295 294 293 292 291 291 290 289 288 287 287 286 286 285 284 284 283 282 282
316 316 316 317 317 317 316 316 316 316 315 315 315 314 314 314 314 314 313 313 313 312 312 311 311 310 310 310 309 309 309 309 308 308 307 307 307 307 306 306 305 305 304 304 304 303 303 302 302 302 301 300 300 300 299 299 298 298 297 297 297 296 296 296 296 296 295 295 294 293 292 291 290 289 289 288 287 287 287 286 285 285 284 283 283 282
316 316 317 317 317 316 316 316 316 315 315 315 315 315 314 314 314 314 313 313 313 312 312 311 311 310 310 310 310 310 309 309 309 308 308 308 307 307 307 306 306 305 305 304 304 304 303 303 302 302 301 301 300 300 300 299 299 298 298 298 297 297 297 297 297 296 295 295 294 293 292 291 290 289 289 288 288 288 288 287 286 285 285 284 283 283
316 317 317 317 317 316 316 316 316 315 315 315 315 315 315 314 314 314 314 313 313 312 312 311 311 311 310 310 310 310 310 309 309 309 308 308 308 307 307 307 306 305 305 305 304 304 303 303 303 302 301 301 301 300 300 299 299 299 299 298 298 298 298 297 297 296 295 294 293 292 292 291 290 290 290 290 289 289 289 288 287 286 286 285 284 283
317 317 317 317 317 316 316 316 316 316 315 315 315 315 315 315 315 314 314 313 313 312 312 311 311 311 311 310 310 310 310 310 309 309 309 308 308 308 307 307 306 306 305 305 304 304 304 303 303 302 302 301 301 300 300 300 300 299 299 299 299 299 298 298 297 296 295 294 293 293 292 292 291 291 292 291 291 290 289 289 288 287 287 286 285 284
317 317 317 317 317 316 316 316 316 316 316 316 316 316 315 315 315 314 314 313 313 312 312 312 312 311 311 311 311 311 310 310 309 309 309 308 308 308 307 307 306 306 306 305 305 304 304 304 303 303 302 302 301 301 301 300 300 300 300 300 299 299 299 298 297 296 296 295 294 294 293 293 293 293 293 293 292 291 290 290 289 288 287 286 285 284
317 317 317 317 317 317 316 316 316 316 316 316 316 316 316 315 315 314 314 314 313 313 313 312 312 312 312 311 311 311 311 310 310 309 309 308 308 308 307 307 307 306 306 306 305 305 304 304 304 303 303 302 302 302 301 301 301 301 301 300 300 299 299 298 298 297 296 296 295 295 295 295 295 294 294 293 292 291 291 290 289 288 287 286 285 285
318 317 317 317 317 317 317 317 317 317 317 317 316 316 316 315 315 315 314 314 314 313 313 313 313 312 312 312 312 311 311 310 310 309 309 308 308 308 308 307 307 307 306 306 306 305 305 304 304 304 303 303 303 302 302 302 302 301 301 301 300 300 299 299 299 298 298 297 297 296 296 296 295 295 294 293 292 291 291 290 289 288 287 287 286 286
317 317 317 317 317 317 317 317 317 317 317 317 317 316 316 316 315 315 315 314 314 314 314 313 313 313 313 312 312 312 311 311 310 310 309 309 308 308 308 308 307 307 307 306 306 306 305 305 305 305 304 304 304 303 303 303 302 302 301 301 301 301 300 300 300 299 298 298 298 297 297 296 295 294 293 293 292 291 291 290 289 289 288 288 287 287
318 317 317 317 317 317 317 317 317 317 317 317 317 317 316 316 315 315 315 315 314 314 314 314 314 313 313 313 313 312 312 311 311 310 310 309 309 309 308 308 308 307 307 307 307 306 306 306 306 306 305 305 305 304 304 303 303 303 302 302 302 301 301 301 300 300 299 298 298 297 297 296 295 294 294 293 292 292 291 291 290 290 289 288 287 287
318 318 318 318 318 318 318 318 318 318 318 318 317 317 316 316 316 315 315 315 315 315 314 314 314 314 313 313 313 313 312 312 311 311 310 310 310 309 309 309 309 308 308 308 308 307 307 307 307 307 306 306 305 305 305 304 304 304 303 303 303 302 302 301 301 300 300 299 298 298 297 296 296 295 294 294 293 292 292 291 291 290 289 288 287 286
318 318 318 318 318 318 318 318 318 318 318 318 317 317 316 316 316 316 316 315 315 315 315 314 314 314 314 314 313 313 313 313 312 312 311 311 311 310 310 310 310 310 310 309 309 309 308 308 308 307 307 307 306 306 306 305 305 305 304 304 304 303 303 302 302 301 301 300 299 298 298 297 296 295 295 294 294 293 292 291 291 290 289 288 287 286
318 318 318 318 319 319 319 319 319 319 318 318 317 317 317 317 316 316 316 316 316 315 315 315 315 314 314 314 314 314 314 314 313 313 312 312 312 312 311 311 311 311 311 310 310 310 309 309 309 308 308 308 307 307 307 307 306 306 306 305 305 305 304 303 303 302 302 301 300 299 299 298 297 296 295 295 294 293 292 292 291 290 289 288 287 286
319 319 319 319 319 319 319 319 319 319 319 318 318 317 317 317 317 317 317 316 316 316 316 316 315 315 315 315 315 315 315 315 314 314 314 313 313 313 313 313 313 312 312 312 311 311 311 310 310 309 309 309 308 308 308 308 307 307 307 307 306 306 306 305 304 304 303 302 301 301 300 299 298 297 296 296 295 294 293 292 291 290 289 288 287 286
319 319 319 319 319 320 320 320 319 319 319 318 318 318 318 318 317 317 317 317 317 317 317 316 316 316 316 316 316 316 316 316 315 315 315 315 314 314 314 314 314 314 314 313 313 312 312 311 311 310 310 310 310 310 309 309 309 309 308 308 308 307 307 306 306 305 304 304 303 302 301 300 299 298 298 297 296 295 293 292 291 290 289 289 288 287
320 320 320 320 320 320 320 320 320 319 319 319 319 318 318 318 318 318 318 318 318 318 317 317 317 317 317 317 317 317 317 317 317 316 316 316 316 316 315 315 315 315 315 314 314 313 313 313 312 312 312 311 311 311 311 311 311 310 310 309 309 308 308 307 307 306 305 305 304 303 302 302 301 300 299 298 297 295 294 293 292 291 290 290 289 288
320 320 320 320 320 320 320 320 320 320 320 319 319 319 319 319 319 319 319 318 318 318 318 318 318 318 318 318 318 318 318 318 318 318 318 317 317 317 317 317 316 316 316 315 315 315 314 314 313 313 313 313 313 312 312 312 312 311 311 311 310 309 309 308 308 307 307 306 305 304 304 303 302 301 300 299 298 296 295 294 293 293 292 291 290 289
320 321 321 321 321 321 321 321 320 320 320 320 320 320 320 319 319 319 319 319 319 319 319 319 319 319 320 320 320 320 320 319 319 319 319 319 318 318 318 318 318 317 317 317 316 316 315 315 314 314 314 314 314 314 314 313 313 313 312 312 311 311 310 310 309 309 308 307 307 306 305 304 303 302 301 301 299 299 298 297 296 295 294 293 292 291
321 321 321 321 321 321 321 321 321 321 320 320 320 320 320 320 320 320 320 320 320 320 320 320 320 321 321 321 321 321 321 321 321 320 320 320 320 319 319 319 319 319 318 318 317 317 317 316 316 316 316 316 315 315 315 315 314 314 314 313 313 312 312 311 311 310 310 309 309 308 307 306 305 305 304 303 302 301 300 299 298 297 296 295 294 293
321 321 321 322 322 322 322 321 321 321 321 321 321 320 321 320 321 321 321 321 321 321 321 321 321 322 322 322 322 322 322 322 321 321 321 321 321 321 320 320 320 320 319 319 319 318 318 318 318 318 317 317 317 317 316 316 316 316 316 315 315 315 314 314 313 313 312 312 311 311 310 309 309 308 307 306 306 305 303 302 301 300 299 298 297 296
322 322 322 322 322 322 322 322 322 321 321 321 321 321 321 321 321 321 321 322 322 322 322 322 323 323 322 323 323 322 322 322 322 322 322 322 322 322 321 321 321 321 321 320 320 320 320 319 319 319 319 319 319 318 318 318 318 318 318 318 317 317 317 316 316 316 315 315 314 314 313 313 312 311 311 310 308 308 306 305 305 303 302 301 300 298
322 322 322 322 323 323 322 322 322 322 322 322 322 322 322 322 322 322 322 323 323 323 323 323 323 323 323 323 323 323 323 323 323 323 323 323 323 323 323 323 322 322 322 322 322 321 321 321 321 321 321 321 321 321 321 320 320 321 320 320 320 320 320 319 319 319 319 318 318 317 317 316 316 315 314 312 312 311 310 309 308 307 305 304 303 301
323 323 323 323 323 323 323 323 323 322 322 322 322 322 322 322 323 323 323 324 324 324 324 324 324 324 324 324 324 324 324 324 324 324 324 324 324 324 324 324 324 324 324 323 323 323 323 323 323 323 323 323 323 323 323 323 323 324 323 323 323 323 323 323 323 322 322 322 321 321 320 320 319 318 317 316 315 314 313 312 311 310 308 306 305 302
323 323 323 324 324 324 323 323 323 323 323 323 323 323 323 323 324 324 325 325 325 325 325 325 325 325 325 325 325 325 325 325 325 325 325 325 325 326 326 326 326 326 325 325 325 325 325 325 325 325 326 326 326 326 326 326 327 327 327 327 327 327 326 326 326 326 326 325 325 325 324 323 322 321 320 319 318 317 316 315 313 312 310 308 305 303
324 324 324 324 324 324 324 324 324 324 323 323 324 324 324 324 325 325 326 326 326 326 326 326 326 326 326 326 326 326 326 326 326 326 326 327 327 327 327 327 327 327 327 327 327 327 328 327 328 328 329 329 329 329 330 330 330 330 330 331 330 330 330 330 330 329 329 329 328 328 327 326 326 324 323 322 321 319 318 316 315 313 311 308 305 303
324 324 324 325 325 325 325 324 324 324 324 324 324 325 325 325 326 326 327 327 327 327 327 327 327 327 327 327 327 327 327 327 328 328 328 328 329 329 329 329 329 329 329 329 330 330 330 331 331 332 332 333 333 333 333 333 334 334 334 334 334 334 334 334 333 333 332 332 332 331 330 329 328 327 325 324 323 321 319 317 315 313 310 308 305 302
325 325 325 325 325 325 325 325 325 325 325 325 325 325 326 326 327 327 328 328 328 328 328 328 328 328 328 328 328 328 328 329 329 329 330 330 330 330 331 331 331 331 332 332 332 333 333 334 334 335 335 336 336 336 336 337 337 337 337 337 337 337 337 337 336 336 335 335 334 334 333 331 330 329 327 326 324 322 320 318 316 313 311 309 307 304
325 325 326 326 326 326 326 325 325 325 325 326 326 326 327 327 328 328 328 328 329 329 329 329 329 329 329 329 329 330 330 330 330 331 331 331 332 332 332 333 333 333 334 335 335 335 336 337 338 338 339 339 339 339 340 340 340 340 340 340 340 340 339 339 339 338 337 336 336 335 334 333 332 331 329 328 326 324 322 321 319 317 315 313 311 309
326 326 326 326 326 326 326 326 326 326 326 326 327 327 328 328 328 329 329 329 329 329 329 329 330 330 330 330 331 331 331 332 332 332 333 333 333 334 335 335 335 336 337 337 338 339 340 340 341 341 342 342 342 342 343 343 342 343 342 343 342 342 341 341 341 340 339 339 337 337 336 335 335 334 333 332 330 329 327 326 324 323 321 320 317 315
326 326 326 326 327 326 326 326 326 326 326 327 327 328 328 329 329 330 330 330 330 330 330 330 331 331 331 331 332 332 333 333 333 334 334 335 335 336 337 337 338 339 340 340 341 342 343 343 344 344 345 345 345 346 346 345 345 345 345 345 344 344 344 343 342 342 341 341 340 339 339 339 338 338 337 336 336 334 333 332 331 329 327 325 324 321
327 327 327 327 327 327 327 327 327 327 327 328 328 329 329 330 330 330 330 331 331 331 331 331 332 332 332 332 333 333 334 334 335 336 336 337 338 338 339 340 341 341 343 343 345 345 346 346 347 347 348 348 348 348 348 348 348 348 347 347 346 346 345 345 345 344 344 344 344 343 343 343 343 342 342 341 341 340 339 337 336 334 333 331 330 328
327 327 327 327 327 327 327 327 327 327 328 328 329 329 330 330 330 331 331 331 331 332 332 332 333 333 333 334 334 335 335 336 336 337 338 339 340 341 342 343 344 345 345 347 347 348 349 350 350 350 351 351 351 351 351 351 351 350 349 349 349 348 348 348 348 348 348 348 348 348 347 348 347 347 346 345 345 344 343 342 340 339 338 338 337 336
327 327 327 327 327 327 327 327 328 328 328 329 329 330 330 331 331 331 332 332 332 332 333 333 334 334 334 335 335 336 336 337 338 339 340 341 342 343 344 345 346 347 348 350 351 351 352 353 353 354 354 354 354 355 354 354 354 353 352 352 352 352 351 351 351 351 351 352 352 351 351 351 351 350 349 349 348 348 347 347 347 346 346 346 344 344
328 328 328 328 328 328 328 328 328 329 329 330 330 330 331 332 332 332 332 332 333 333 334 334 335 335 336 336 337 337 338 338 339 340 341 343 344 345 346 348 349 350 351 353 354 355 355 356 357 357 357 358 358 358 357 357 357 356 355 355 355 355 355 354 355 355 354 354 354 354 354 354 353 353 353 353 353 352 353 353 353 352 352 351 350 349
328 328 328 328 328 328 328 328 329 329 330 330 331 331 332 332 332 333 333 333 334 334 335 335 335 336 336 337 338 338 339 340 341 342 343 344 346 347 349 350 351 352 354 355 357 358 359 359 360 360 0 0 1 1 0 359 359 359 358 357 357 357 357 357 357 357 357 357 357 357 357 357 357 357 357 358 358 357 357 357 356 356 354 353 352 350
328 328 328 328 328 328 329 329 329 329 330 331 331 332 332 332 333 333 334 334 334 335 335 336 336 337 338 338 339 340 340 341 342 343 345 346 348 349 351 352 354 355 356 358 359 1 1 2 2 2 2 2 2 2 2 1 1 0 360 359 359 359 360 359 359 359 360 359 359 359 359 359 360 360 360 0 0 360 360 358 358 356 355 353 353 351
328 328 329 329 329 329 329 329 329 330 330 331 332 332 332 333 333 334 334 334 335 336 336 337 337 338 339 339 340 340 342 342 343 345 346 348 349 351 353 354 356 357 359 0 2 3 4 4 4 3 3 3 3 3 3 2 1 1 1 0 0 0 1 1 1 1 1 1 1 1 1 1 1 0 0 1 1 0 360 358 357 356 354 353 352 351
329 329 329 329 329 329 329 329 330 330 331 331 332 332 333 333 334 334 335 335 335 336 337 337 338 339 339 340 341 342 342 344 345 346 348 349 351 352 354 356 357 359 1 3 4 5 6 6 5 4 3 3 2 2 2 2 1 1 1 1 1 1 1 2 2 2 2 2 2 2 2 2 2 2 1 0 0 360 358 358 357 356 354 353 353 352
Height
10448 10444 10440 10436 10432 10427 10422 10418 10415 10411 10406 10400 10396 10392 10387 10382 10375 10370 10363 10358 10352 10345 10340 10333 10328 10322 10317 10312 10308 10303 10298 10293 10288 10285 10280 10275 10271 10267 10262 10258 10253 10249 10245 10242 10238 10235 10231 10228 10225 10222 10220 10216 10214 10211 10208 10205 10203 10200 10197 10195 10192 10190 10188 10186 10185 10183 10181 10179 10178 10176 10174 10173 10171 10170 10168 10167 10165 10164 10163 10162 10161 10161 10160 10160 10160 10160
10440 10435 10431 10428 10424 10419 10414 10410 10406 10403 10399 10394 10389 10385 10380 10375 10368 10362 10356 10350 10344 10338 10332 10325 10319 10313 10307 10302 10297 10292 10287 10282 10277 10272 10268 10263 10259 10255 10250 10246 10242 10238 10234 10230 10226 10223 10220 10216 10213 10211 10208 10205 10202 10200 10197 10194 10191 10189 10186 10183 10181 10180 10178 10176 10174 10172 10170 10169 10167 10165 10164 10163 10161 10160 10158 10156 10155 10154 10153 10152 10151 10151 10150 10150 10150 10149
10433 10428 10423 10420 10416 10412 10407 10402 10397 10393 10390 10386 10382 10377 10372 10367 10361 10355 10349 10343 10337 10330 10324 10318 10313 10307 10300 10295 10289 10284 10278 10273 10268 10262 10257 10252 10247 10243 10238 10234 10230 10226 10223 10219 10215 10211 10208 10205 10202 10199 10196 10193 10190 10188 10185 10183 10180 10178 10175 10173 10171 10170 10168 10166 10164 10162 10160 10158 10157 10155 10153 10153 10151 10150 10148 10147 10146 10145 10143 10143 10141 10141 10140 10140 10140 10140
10427 10422 10417 10413 10408 10405 10400 10395 10390 10385 10381 10377 10372 10367 10362 10357 10352 10347 10341 10335 10330 10323 10317 10311 10305 10300 10293 10288 10282 10277 10272 10266 10260 10255 10249 10243 10238 10232 10228 10223 10219 10215 10211 10208 10204 10201 10197 10193 10190 10187 10185 10181 10179 10176 10174 10171 10169 10166 10164 10162 10161 10160 10157 10155 10153 10151 10150 10148 10147 10145 10144 10143 10141 10140 10139 10138 10136 10136 10135 10133 10132 10131 10131 10131 10130 10130
10421 10417 10412 10407 10402 10397 10393 10388 10383 10377 10372 10367 10362 10358 10353 10347 10342 10336 10330 10325 10320 10314 10308 10302 10297 10291 10285 10279 10273 10268 10264 10259 10253 10248 10242 10236 10230 10224 10218 10213 10209 10205 10201 10198 10194 10190 10187 10183 10180 10176 10173 10170 10167 10165 10162 10160 10158 10156 10154 10152 10150 10149 10147 10145 10143 10141 10140 10138 10137 10136 10135 10133 10132 10131 10130 10129 10128 10126 10125 10124 10123 10122 10122 10122 10121 10121
10415 10411 10407 10402 10396 10390 10386 10381 10375 10369 10363 10357 10352 10347 10342 10338 10332 10327 10320 10314 10308 10303 10298 10293 10287 10282 10277 10270 10265 10260 10255 10250 10245 10240 10234 10228 10222 10216 10211 10206 10201 10196 10193 10189 10185 10181 10178 10175 10171 10167 10163 10160 10157 10155 10152 10150 10148 10146 10144 10143 10141 10138 10137 10135 10133 10132 10130 10129 10128 10126 10125 10125 10123 10122 10121 10120 10118 10117 10116 10115 10114 10113 10113 10113 10113 10112
10407 10403 10399 10395 10390 10383 10377 10372 10368 10363 10357 10349 10342 10336 10331 10327 10322 10318 10313 10307 10300 10293 10288 10282 10277 10272 10267 10262 10257 10251 10245 10240 10235 10231 10225 10220 10214 10208 10203 10198 10193 10188 10185 10181 10177 10173 10170 10166 10163 10159 10155 10151 10148 10146 10143 10141 10138 10136 10135 10133 10131 10130 10128 10126 10125 10123 10121 10120 10119 10118 10117 10116 10115 10113 10112 10111 10110 10108 10107 10106 10106 10105 10105 10104 10104 10103
10401 10395 10390 10386 10382 10376 10369 10362 10358 10354 10351 10344 10337 10329 10323 10317 10312 10306 10302 10298 10293 10287 10280 10273 10267 10260 10256 10252 10247 10242 10236 10230 10225 10221 10216 10211 10205 10200 10195 10190 10185 10181 10177 10173 10170 10166 10162 10158 10155 10151 10148 10144 10141 10138 10136 10133 10130 10128 10126 10125 10123 10121 10120 10118 10116 10115 10113 10112 10111 10110 10110 10108 10107 10105 10104 10103 10101 10100 10099 10098 10098 10097 10096 10096 10096 10095
10395 10390 10383 10378 10373 10369 10363 10356 10348 10343 10340 10335 10330 10323 10317 10311 10304 10297 10290 10285 10282 10278 10273 10265 10258 10251 10245 10240 10236 10232 10227 10221 10216 10211 10206 10201 10196 10191 10186 10181 10177 10173 10170 10166 10162 10158 10155 10151 10147 10143 10140 10137 10134 10131 10129 10126 10123 10121 10119 10117 10115 10113 10112 10110 10108 10107 10106 10105 10104 10103 10102 10101 10099 10098 10096 10095 10094 10093 10091 10091 10090 10090 10090 10089 10088 10088
10387 10382 10377 10371 10366 10362 10357 10350 10343 10337 10332 10326 10320 10313 10308 10305 10299 10292 10283 10275 10270 10266 10262 10257 10250 10243 10236 10230 10225 10221 10217 10212 10206 10201 10197 10192 10186 10181 10177 10173 10170 10166 10162 10158 10155 10151 10147 10144 10140 10136 10133 10130 10127 10125 10122 10120 10116 10114 10111 10110 10108 10106 10105 10103 10101 10100 10100 10098 10097 10096 10095 10093 10092 10090 10089 10088 10086 10086 10085 10084 10083 10083 10083 10082 10081 10081
10378 10374 10369 10363 10358 10352 10347 10342 10336 10330 10325 10319 10312 10304 10298 10293 10290 10285 10277 10268 10261 10255 10250 10245 10238 10233 10228 10221 10215 10211 10207 10203 10198 10193 10187 10183 10178 10173 10169 10165 10161 10158 10154 10151 10147 10143 10140 10137 10133 10130 10126 10124 10121 10118 10116 10113 10110 10108 10105 10103 10101 10100 10098 10096 10095 10094 10093 10092 10091 10090 10088 10087 10085 10084 10082 10081 10080 10079 10078 10078 10077 10076 10076 10075 10075 10074
10372 10367 10362 10356 10350 10345 10338 10333 10326 10320 10315 10310 10303 10295 10287 10281 10277 10273 10267 10260 10253 10247 10242 10235 10228 10222 10218 10212 10206 10201 10197 10193 10188 10183 10178 10173 10169 10165 10161 10157 10153 10150 10146 10143 10140 10137 10134 10131 10128 10124 10120 10117 10115 10112 10110 10107 10105 10102 10100 10098 10096 10094 10092 10090 10089 10088 10087 10086 10085 10083 10082 10080 10079 10077 10076 10075 10073 10073 10072 10071 10071 10070 10070 10069 10068 10067
10365 10360 10354 10348 10343 10337 10331 10325 10318 10311 10305 10300 10295 10288 10280 10273 10268 10263 10257 10251 10245 10238 10233 10226 10219 10213 10207 10202 10198 10193 10189 10185 10180 10175 10170 10165 10161 10158 10155 10150 10146 10142 10138 10135 10131 10130 10127 10125 10121 10118 10114 10111 10108 10106 10103 10101 10099 10096 10094 10092 10090 10088 10086 10085 10083 10082 10081 10080 10079 10077 10075 10074 10072 10071 10070 10068 10068 10066 10066 10065 10065 10064 10063 10063 10061 10061
10358 10353 10347 10340 10335 10329 10323 10317 10311 10304 10297 10292 10287 10281 10274 10267 10260 10255 10249 10243 10236 10230 10224 10218 10211 10204 10198 10193 10188 10185 10180 10176 10171 10166 10161 10157 10153 10151 10148 10143 10140 10135 10131 10128 10125 10122 10120 10117 10114 10111 10108 10105 10101 10099 10097 10095 10093 10090 10088 10086 10085 10083 10081 10080 10078 10076 10075 10074 10073 10071 10070 10068 10066 10065 10063 10063 10061 10060 10060 10060 10059 10058 10058 10056 10056 10056
10352 10347 10340 10333 10327 10321 10315 10310 10304 10297 10290 10284 10278 10272 10265 10259 10252 10247 10240 10234 10228 10221 10215 10209 10203 10196 10190 10185 10181 10176 10172 10168 10163 10158 10153 10149 10146 10143 10141 10137 10133 10129 10125 10121 10118 10115 10113 10110 10108 10105 10102 10099 10096 10093 10091 10088 10086 10085 10083 10081 10079 10078 10076 10075 10073 10071 10070 10068 10067 10065 10063 10061 10060 10059 10058 10056 10056 10055 10055 10054 10053 10053 10052 10051 10051 10051
10345 10340 10333 10327 10320 10313 10308 10302 10296 10290 10283 10276 10270 10264 10258 10251 10244 10238 10232 10226 10220 10213 10207 10201 10195 10189 10183 10177 10173 10170 10165 10160 10156 10151 10147 10142 10139 10136 10134 10130 10126 10123 10120 10116 10112 10110 10107 10105 10102 10099 10096 10093 10090 10088 10085 10083 10081 10078 10077 10075 10073 10072 10071 10070 10068 10066 10065 10063 10061 10059 10058 10056 10055 10053 10052 10051 10051 10050 10050 10049 10048 10048 10047 10047 10046 10045
10338 10332 10327 10319 10312 10305 10300 10294 10288 10281 10274 10268 10262 10255 10249 10243 10236 10230 10223 10217 10211 10205 10200 10194 10189 10183 10176 10171 10166 10163 10158 10153 10148 10145 10140 10136 10132 10130 10127 10123 10120 10116 10113 10110 10106 10104 10101 10098 10096 10093 10091 10088 10086 10083 10080 10078 10075 10073 10071 10070 10068 10067 10066 10064 10063 10061 10059 10057 10055 10054 10052 10050 10049 10048 10047 10046 10046 10046 10045 10044 10043 10042 10042 10042 10041 10040
10330 10325 10318 10312 10304 10297 10290 10285 10280 10273 10265 10258 10252 10246 10240 10233 10227 10221 10215 10209 10203 10197 10191 10186 10181 10176 10171 10165 10160 10157 10153 10148 10143 10138 10135 10130 10126 10123 10121 10118 10114 10111 10108 10105 10101 10098 10096 10093 10090 10088 10085 10083 10081 10078 10075 10073 10071 10068 10066 10065 10063 10062 10061 10059 10058 10056 10054 10052 10050 10048 10047 10046 10045 10044 10043 10043 10041 10041 10040 10039 10039 10038 10037 10037 10036 10036
10322 10316 10311 10305 10297 10289 10282 10276 10270 10265 10258 10250 10244 10237 10231 10224 10218 10211 10206 10200 10195 10189 10184 10179 10174 10170 10165 10160 10156 10151 10148 10143 10138 10133 10129 10125 10121 10118 10115 10112 10109 10106 10103 10100 10096 10093 10090 10088 10085 10083 10081 10079 10076 10074 10071 10068 10066 10064 10062 10060 10059 10057 10056 10054 10052 10051 10049 10047 10046 10044 10043 10041 10040 10040 10039 10038 10037 10036 10035 10035 10034 10033 10033 10032 10031 10031
10313 10307 10302 10297 10290 10282 10274 10267 10261 10255 10249 10243 10236 10230 10223 10216 10210 10203 10198 10191 10186 10181 10176 10172 10167 10163 10159 10154 10150 10146 10143 10138 10133 10128 10124 10120 10116 10113 10110 10106 10103 10100 10097 10094 10091 10088 10085 10083 10080 10078 10076 10075 10072 10069 10066 10064 10062 10060 10058 10056 10054 10053 10051 10050 10048 10046 10045 10043 10041 10040 10039 10038 10036 10036 10035 10033 10033 10032 10031 10030 10029 10028 10028 10027 10027 10026
10307 10299 10292 10287 10282 10275 10267 10260 10253 10247 10241 10235 10228 10221 10215 10208 10201 10195 10190 10184 10178 10173 10169 10165 10160 10156 10152 10148 10145 10141 10137 10133 10128 10123 10119 10115 10111 10108 10105 10101 10098 10095 10091 10089 10086 10083 10080 10078 10075 10073 10071 10070 10067 10065 10062 10060 10058 10056 10054 10052 10050 10048 10046 10045 10043 10041 10040 10039 10038 10036 10035 10034 10033 10031 10030 10029 10028 10027 10026 10025 10025 10024 10023 10023 10023 10022
10301 10293 10286 10280 10273 10267 10260 10253 10246 10240 10233 10227 10220 10214 10207 10200 10194 10188 10182 10177 10171 10166 10162 10158 10153 10150 10146 10142 10140 10136 10131 10127 10123 10118 10114 10110 10106 10103 10100 10096 10093 10090 10087 10085 10081 10078 10076 10073 10071 10068 10066 10065 10063 10060 10058 10055 10053 10051 10050 10048 10046 10044 10043 10041 10040 10038 10036 10035 10033 10032 10031 10030 10028 10027 10026 10025 10024 10023 10022 10021 10021 10020 10020 10019 10019 10018
10293 10286 10279 10272 10266 10259 10252 10245 10239 10232 10226 10219 10213 10206 10200 10194 10188 10182 10176 10171 10165 10160 10156 10151 10148 10144 10140 10136 10133 10130 10126 10122 10118 10113 10110 10105 10101 10098 10095 10092 10089 10086 10083 10080 10077 10074 10071 10069 10066 10064 10062 10060 10058 10055 10053 10051 10050 10048 10046 10044 10042 10040 10039 10037 10036 10034 10033 10031 10030 10028 10027 10026 10025 10023 10022 10021 10020 10020 10018 10018 10017 10016 10016 10015 10015 10015
10286 10279 10272 10265 10258 10252 10245 10239 10233 10226 10218 10211 10205 10199 10193 10187 10181 10176 10171 10166 10160 10155 10151 10146 10142 10138 10135 10131 10128 10124 10120 10117 10113 10108 10105 10101 10097 10094 10091 10088 10085 10081 10079 10076 10073 10070 10067 10065 10063 10060 10058 10056 10053 10051 10049 10047 10045 10043 10041 10040 10038 10036 10035 10033 10032 10030 10029 10028 10026 10025 10023 10022 10021 10020 10019 10018 10017 10016 10015 10015 10014 10013 10013 10012 10011 10011
10280 10272 10266 10258 10252 10245 10238 10231 10225 10218 10211 10205 10198 10192 10186 10181 10175 10170 10165 10161 10156 10151 10146 10141 10138 10133 10130 10126 10122 10118 10115 10112 10108 10104 10100 10096 10093 10090 10086 10083 10080 10078 10075 10072 10069 10066 10063 10061 10059 10056 10054 10052 10050 10048 10045 10043 10041 10040 10038 10036 10035 10033 10031 10030 10028 10027 10026 10024 10023 10021 10020 10019 10018 10016 10016 10015 10014 10013 10012 10011 10011 10010 10009 10008 10008 10008
10272 10265 10258 10251 10244 10237 10231 10224 10218 10211 10205 10198 10192 10186 10180 10174 10169 10164 10160 10155 10150 10145 10141 10136 10132 10128 10125 10121 10117 10114 10110 10106 10103 10099 10095 10091 10088 10085 10082 10079 10076 10074 10071 10068 10065 10063 10060 10057 10055 10053 10050 10048 10046 10044 10042 10040 10038 10036 10035 10033 10031 10030 10028 10026 10025 10024 10022 10021 10020 10018 10017 10016 10015 10013 10013 10011 10011 10010 10009 10008 10008 10006 10006 10005 10005 10005
10264 10257 10250 10243 10236 10230 10224 10218 10211 10205 10198 10192 10186 10180 10174 10168 10163 10158 10154 10150 10145 10140 10136 10131 10127 10123 10120 10116 10113 10109 10106 10102 10098 10095 10091 10088 10084 10081 10078 10075 10072 10070 10067 10065 10061 10059 10056 10053 10051 10049 10046 10045 10043 10041 10038 10036 10035 10033 10031 10030 10028 10026 10025 10023 10022 10020 10019 10018 10016 10015 10014 10013 10011 10010 10010 10008 10008 10007 10006 10005 10005 10004 10003 10002 10001 10001
10257 10250 10243 10236 10230 10223 10217 10211 10205 10198 10192 10186 10180 10174 10169 10163 10158 10153 10148 10144 10140 10135 10131 10126 10122 10118 10115 10111 10108 10105 10101 10098 10094 10090 10087 10084 10080 10077 10074 10071 10068 10066 10063 10061 10058 10055 10053 10050 10048 10045 10043 10041 10039 10037 10035 10034 10032 10030 10028 10026 10025 10023 10022 10020 10019 10017 10016 10015 10013 10012 10011 10010 10009 10008 10006 10006 10005 10004 10003 10002 10001 10001 10000 10000 9999 9998
10250 10243 10236 10230 10223 10217 10211 10205 10198 10192 10186 10180 10174 10168 10163 10158 10153 10148 10143 10139 10135 10130 10126 10122 10118 10114 10110 10106 10103 10100 10097 10094 10090 10086 10083 10080 10077 10073 10071 10068 10065 10063 10060 10058 10055 10052 10050 10047 10045 10042 10040 10038 10036 10035 10033 10031 10029 10027 10026 10024 10022 10021 10019 10018 10016 10015 10013 10012 10011 10010 10008 10007 10006 10005 10004 10003 10002 10001 10000 10000 9999 9998 9998 9997 9996 9996
10242 10236 10229 10223 10216 10210 10205 10198 10192 10186 10180 10174 10168 10163 10158 10153 10149 10144 10139 10135 10130 10126 10121 10118 10114 10110 10106 10102 10099 10096 10093 10090 10086 10083 10080 10076 10073 10070 10068 10065 10061 10059 10057 10055 10051 10049 10046 10045 10042 10040 10037 10035 10033 10031 10030 10028 10026 10025 10023 10021 10020 10018 10016 10015 10013 10012 10011 10010 10008 10007 10006 10005 10004 10003 10001 10001 10000 9999 9998 9997 9996 9996 9995 9995 9994 9994
10236 10229 10223 10216 10210 10204 10198 10192 10186 10180 10175 10169 10163 10158 10153 10149 10144 10140 10135 10130 10126 10122 10118 10114 10110 10106 10103 10099 10095 10091 10088 10085 10082 10080 10076 10073 10070 10067 10065 10061 10058 10056 10054 10051 10049 10046 10044 10041 10040 10037 10035 10033 10031 10029 10027 10025 10024 10022 10020 10018 10017 10015 10014 10013 10011 10010 10008 10007 10006 10005 10003 10003 10001 10000 10000 9998 9998 9997 9996 9995 9995 9994 9993 9993 9992 9991
10230 10223 10217 10211 10205 10198 10193 10186 10180 10175 10169 10164 10159 10154 10149 10145 10140 10135 10131 10126 10122 10118 10114 10110 10106 10103 10099 10096 10092 10088 10085 10081 10078 10076 10073 10070 10067 10064 10061 10059 10056 10053 10051 10048 10046 10043 10041 10039 10036 10035 10033 10031 10029 10027 10025 10023 10021 10020 10018 10016 10015 10013 10011 10010 10009 10008 10006 10005 10004 10003 10001 10000 10000 9998 9998 9996 9996 9995 9994 9993 9993 9992 9991 9991 9990 9990
10225 10218 10211 10205 10199 10193 10187 10181 10175 10170 10164 10159 10155 10150 10145 10141 10136 10132 10128 10123 10119 10115 10111 10106 10103 10099 10095 10092 10089 10086 10082 10079 10076 10073 10070 10067 10064 10061 10059 10056 10053 10051 10048 10046 10043 10041 10039 10036 10035 10032 10030 10028 10026 10025 10023 10021 10019 10018 10016 10015 10013 10011 10010 10008 10007 10005 10004 10003 10002 10001 10000 9998 9998 9996 9996 9995 9994 9993 9992 9991 9991 9990 9990 9989 9988 9988
10219 10212 10206 10200 10194 10188 10182 10176 10171 10165 10160 10155 10150 10146 10141 10137 10133 10128 10124 10120 10116 10112 10108 10104 10100 10096 10092 10089 10086 10083 10080 10076 10073 10070 10067 10065 10062 10059 10056 10054 10051 10049 10046 10043 10041 10039 10036 10035 10032 10030 10028 10026 10025 10023 10021 10019 10017 10016 10014 10013 10011 10010 10008 10006 10005 10004 10003 10001 10000 9999 9998 9997 9996 9995 9994 9993 9992 9991 9991 9990 9989 9988 9988 9987 9987 9986
10213 10206 10201 10195 10189 10183 10178 10172 10166 10161 10156 10151 10146 10142 10138 10133 10129 10125 10121 10117 10113 10109 10105 10101 10097 10093 10090 10086 10083 10080 10076 10073 10071 10068 10065 10062 10060 10057 10054 10051 10050 10047 10044 10041 10040 10037 10035 10033 10030 10028 10026 10025 10023 10021 10019 10018 10016 10014 10013 10011 10010 10008 10006 10005 10004 10003 10001 10000 9999 9998 9996 9995 9995 9993 9993 9991 9991 9990 9989 9988 9988 9987 9986 9986 9985 9985
10208 10201 10195 10190 10184 10178 10173 10167 10162 10157 10152 10147 10143 10138 10134 10130 10126 10122 10118 10114 10110 10106 10103 10099 10095 10091 10088 10084 10081 10077 10074 10071 10068 10065 10063 10060 10058 10055 10052 10050 10047 10045 10043 10040 10038 10035 10033 10031 10029 10027 10025 10023 10021 10019 10018 10016 10015 10013 10011 10010 10008 10006 10005 10004 10003 10001 10000 9999 9998 9996 9995 9994 9993 9992 9991 9990 9990 9988 9988 9987 9986 9986 9985 9985 9984 9983
10203 10196 10190 10185 10180 10174 10168 10163 10158 10153 10148 10143 10139 10135 10131 10126 10123 10118 10115 10111 10107 10103 10100 10096 10093 10089 10085 10082 10078 10075 10072 10069 10066 10063 10061 10058 10055 10053 10050 10048 10045 10043 10041 10038 10036 10034 10031 10030 10028 10025 10023 10022 10020 10018 10016 10015 10013 10011 10010 10008 10007 10006 10004 10003 10001 10000 9999 9998 9996 9995 9994 9993 9992 9991 9990 9989 9988 9988 9986 9986 9985 9985 9984 9983 9983 9982
10198 10191 10186 10180 10175 10170 10164 10159 10154 10149 10145 10140 10135 10131 10127 10123 10119 10115 10111 10108 10104 10100 10096 10093 10090 10086 10083 10080 10076 10073 10070 10067 10064 10061 10059 10056 10053 10051 10049 10046 10044 10041 10040 10037 10035 10033 10030 10028 10026 10024 10022 10021 10019 10017 10015 10014 10012 10011 10009 10008 10006 10005 10003 10002 10001 9999 9998 9996 9995 9995 9993 9992 9991 9990 9989 9988 9987 9986 9986 9985 9984 9983 9983 9982 9981 9981
10193 10187 10181 10176 10171 10165 10160 10155 10150 10145 10141 10136 10132 10128 10124 10120 10116 10113 10109 10105 10101 10098 10094 10091 10087 10084 10081 10078 10075 10071 10068 10065 10063 10060 10057 10055 10052 10050 10047 10045 10042 10040 10038 10036 10034 10031 10030 10028 10025 10023 10021 10020 10018 10016 10015 10013 10011 10010 10008 10006 10005 10004 10002 10001 10000 9998 9997 9996 9995 9993 9992 9991 9990 9989 9988 9987 9986 9985 9985 9984 9983 9982 9981 9981 9980 9980
10188 10183 10177 10172 10166 10161 10156 10151 10146 10142 10137 10133 10129 10125 10121 10118 10114 10110 10106 10103 10100 10096 10092 10089 10085 10082 10079 10076 10073 10070 10066 10064 10061 10058 10056 10053 10051 10048 10046 10043 10041 10039 10036 10035 10033 10031 10028 10026 10025 10023 10021 10019 10017 10015 10013 10012 10010 10009 10007 10006 10005 10003 10001 10000 9999 9998 9996 9995 9994 9993 9991 9990 9990 9988 9988 9986 9986 9985 9984 9983 9982 9981 9981 9980 9980 9979
10184 10178 10173 10168 10163 10158 10153 10148 10143 10139 10135 10130 10126 10122 10118 10115 10111 10108 10104 10101 10097 10094 10090 10087 10083 10080 10077 10074 10071 10068 10065 10062 10060 10057 10055 10052 10050 10047 10045 10043 10040 10038 10036 10034 10031 10030 10028 10026 10024 10022 10020 10018 10016 10015 10013 10011 10010 10008 10007 10005 10004 10002 10001 10000 9998 9997 9996 9995 9993 9992 9991 9990 9989 9988 9987 9986 9985 9984 9983 9983 9981 9981 9980 9980 9979 9978
10180 10175 10169 10165 10160 10155 10150 10145 10141 10136 10132 10128 10124 10120 10116 10112 10108 10105 10101 10098 10095 10091 10088 10085 10082 10078 10075 10072 10070 10066 10064 10061 10058 10056 10053 10051 10048 10046 10044 10041 10040 10037 10035 10033 10031 10029 10027 10025 10023 10021 10020 10018 10016 10014 10013 10011 10010 10008 10006 10005 10003 10001 10000 9999 9998 9996 9995 9994 9993 9991 9991 9990 9988 9988 9986 9986 9985 9984 9983 9982 9981 9981 9980 9979 9978 9978
10176 10171 10166 10161 10156 10151 10147 10143 10138 10134 10130 10125 10121 10118 10114 10110 10106 10103 10100 10096 10093 10090 10086 10083 10080 10077 10074 10071 10068 10065 10062 10060 10057 10055 10052 10050 10048 10045 10043 10041 10039 10036 10035 10033 10030 10028 10026 10025 10023 10021 10019 10017 10016 10014 10012 10010 10009 10007 10006 10004 10003 10001 10000 9998 9997 9996 9995 9993 9993 9991 9990 9990 9988 9987 9986 9985 9985 9983 9983 9982 9981 9980 9980 9979 9978 9978
10173 10168 10163 10158 10153 10149 10145 10140 10135 10131 10127 10123 10120 10116 10112 10108 10105 10101 10098 10094 10091 10088 10085 10081 10078 10075 10073 10070 10067 10064 10061 10059 10056 10054 10051 10049 10047 10045 10043 10040 10038 10036 10034 10032 10030 10028 10026 10025 10023 10021 10019 10017 10015 10014 10012 10010 10009 10007 10006 10004 10003 10001 10000 9998 9997 9996 9995 9993 9993 9991 9990 9989 9988 9987 9986 9985 9985 9983 9983 9982 9981 9980 9980 9979 9978 9978
10170 10165 10160 10155 10151 10146 10141 10137 10133 10129 10125 10121 10117 10113 10110 10106 10103 10100 10096 10093 10090 10086 10083 10080 10077 10074 10071 10068 10066 10063 10060 10058 10055 10053 10051 10048 10046 10045 10042 10040 10038 10036 10034 10032 10030 10028 10026 10024 10022 10021 10019 10017 10015 10014 10012 10010 10009 10007 10006 10004 10003 10001 10000 9998 9997 9996 9995 9993 9993 9991 9990 9989 9988 9987 9986 9985 9985 9983 9983 9982 9981 9980 9980 9979 9978 9978
10166 10161 10156 10152 10148 10143 10139 10135 10131 10126 10123 10119 10115 10111 10108 10105 10101 10098 10095 10091 10088 10085 10081 10079 10076 10073 10070 10068 10065 10062 10060 10057 10055 10053 10050 10048 10046 10044 10041 10040 10038 10036 10033 10031 10030 10028 10026 10025 10023 10021 10019 10017 10015 10014 10012 10010 10009 10007 10006 10004 10003 10001 10000 9999 9997 9996 9995 9994 9993 9991 9990 9990 9988 9988 9986 9986 9985 9984 9983 9982 9981 9980 9980 9978 9978 9977
10163 10158 10153 10149 10145 10140 10136 10132 10128 10125 10121 10117 10113 10110 10106 10103 10100 10096 10093 10090 10087 10084 10081 10078 10075 10072 10070 10066 10064 10061 10059 10056 10055 10052 10050 10048 10046 10043 10041 10040 10038 10036 10034 10032 10030 10028 10026 10025 10023 10021 10019 10017 10015 10014 10012 10011 10009 10008 10006 10005 10003 10001 10000 9999 9998 9996 9995 9994 9993 9992 9991 9990 9989 9988 9987 9986 9985 9984 9983 9982 9981 9980 9979 9978 9978 9977
10160 10155 10150 10146 10142 10138 10133 10130 10126 10122 10118 10115 10111 10108 10105 10101 10098 10095 10092 10089 10086 10083 10080 10076 10074 10071 10068 10066 10063 10061 10058 10056 10054 10052 10050 10048 10045 10043 10041 10040 10038 10036 10034 10032 10030 10028 10026 10025 10023 10021 10019 10018 10016 10014 10013 10011 10010 10008 10006 10005 10003 10002 10001 10000 9998 9997 9996 9995 9993 9993 9991 9990 9989 9988 9987 9986 9985 9984 9983 9982 9981 9980 9979 9978 9978 9976
10156 10151 10148 10143 10139 10135 10131 10127 10123 10120 10116 10113 10110 10106 10103 10100 10097 10094 10091 10088 10085 10081 10079 10076 10073 10070 10068 10065 10063 10060 10058 10056 10054 10051 10050 10048 10045 10043 10041 10040 10038 10036 10034 10032 10030 10028 10026 10025 10023 10021 10019 10018 10016 10015 10013 10011 10010 10008 10007 10006 10004 10003 10001 10000 9999 9998 9996 9995 9994 9993 9991 9991 9990 9988 9987 9986 9985 9984 9983 9982 9981 9980 9979 9978 9978 9977
10153 10149 10145 10141 10136 10133 10128 10125 10121 10118 10115 10111 10108 10105 10101 10098 10095 10092 10090 10086 10083 10081 10078 10075 10073 10070 10067 10065 10062 10060 10058 10056 10053 10051 10049 10047 10045 10043 10041 10040 10038 10036 10034 10032 10030 10028 10027 10025 10023 10021 10020 10018 10016 10015 10013 10012 10010 10009 10008 10006 10005 10003 10002 10001 10000 9998 9997 9996 9995 9993 9992 9991 9990 9988 9988 9986 9985 9984 9983 9982 9981 9980 9979 9978 9978 9977
10150 10146 10142 10138 10135 10130 10126 10123 10119 10116 10113 10110 10106 10103 10100 10097 10094 10091 10088 10085 10083 10080 10077 10075 10072 10070 10067 10065 10062 10060 10058 10055 10053 10051 10049 10047 10045 10043 10041 10040 10038 10036 10034 10033 10031 10029 10027 10025 10023 10022 10020 10018 10017 10015 10014 10013 10011 10010 10008 10006 10005 10004 10003 10001 10000 9999 9998 9996 9995 9993 9992 9991 9990 9989 9988 9986 9985 9984 9983 9982 9981 9980 9980 9978 9978 9977